CAPE
157 751 1599 1247 1001 956 873 860 648 1555 1691 1026 919 870 1080 917 927 954 1047 1150 1266 1162 1297 1324 1349 1253 1310 1341 1491 1559 1670 1723 1726 1575 1613 1649 2028 1697 1075 1827 1647 1363 1816
178 660 1367 1449 1168 1030 1078 1367 1457 1661 1959 1546 993 981 937 1256 1109 1120 1181 1092 1163 1263 1271 1226 1324 1355 1336 1368 1629 1675 1613 1781 1607 1372 1062 1213 1391 1382 1366 1803 1576 1435 1450
311 617 921 1301 1317 1341 1364 1440 1704 1782 2011 1809 1248 1089 964 963 1190 1108 1224 1275 1127 1063 1214 1238 1296 1521 1664 1862 1825 1814 1666 1673 1581 1260 981 724 946 1552 1379 1471 1638 1555 1411
422 592 372 732 1465 881 1690 1583 1690 1789 1874 1684 1422 1129 967 897 936 1133 1246 1366 1300 1077 1361 1574 1584 1513 2093 2039 2065 1712 1717 1705 1396 1036 764 716 811 1460 1452 1405 1442 1380 1349
404 409 455 1107 860 1105 1480 1647 1890 1904 1617 1518 1457 948 781 546 707 1054 1087 1208 1281 1575 1565 1669 1618 1650 1644 2050 1927 1731 1819 1670 1167 722 583 535 773 1205 1453 1433 1228 1219 1217
377 448 656 652 613 1472 1588 1985 1771 1492 1322 1225 1023 641 527 692 712 846 974 965 1073 1202 1375 1651 1469 1352 1577 1694 1683 1621 1654 1411 821 371 507 775 525 1248 1385 1220 1082 1051 1120
288 307 332 508 1092 956 1538 1790 1702 1340 1106 902 744 549 400 582 694 746 413 450 627 917 1260 1405 1377 1266 1128 1025 1147 1501 1129 637 338 388 445 560 504 1330 1277 1151 1024 1028 1123
256 324 347 340 428 1158 1561 1611 1522 1231 921 848 637 404 377 590 707 714 493 335 375 556 994 1282 1180 846 446 120 563 774 608 361 367 384 158 174 765 1314 1089 999 1104 1316 1139
354 371 286 239 193 543 247 973 1002 914 960 881 737 548 480 496 567 624 866 561 200 383 730 1169 1102 944 588 551 582 190 61 198 139 135 160 115 669 954 858 764 762 803 764
289 288 165 160 144 72 66 185 97 328 488 564 392 161 103 64 167 361 595 608 341 480 608 1036 1030 631 536 504 261 44 45 29 19 99 153 148 181 726 327 346 415 414 639
126 248 162 100 66 12 0 0 34 71 152 93 11 0 0 0 0 0 0 119 519 351 770 578 699 419 300 150 99 32 21 31 55 92 213 487 948 788 685 680 651 500 291
36 5 97 83 58 9 16 0 0 0 0 0 0 0 0 0 0 0 0 0 244 333 374 535 620 179 14 4 2 1 4 15 32 156 255 479 977 686 499 273 219 182 119
18 19 16 10 2 0 0 0 0 0 0 0 0 0 0 0 0 0 0 0 2 16 58 96 21 0 1 2 1 1 1 1 1 31 141 301 572 342 260 147 87 62 20
47 13 0 0 6 2 0 0 0 0 0 0 0 0 0 0 0 0 0 1 0 0 39 0 1 1 1 1 1 1 1 0 1 0 1 66 218 189 109 57 24 26 21
0 0 0 0 1 0 0 0 0 0 0 0 0 0 0 0 0 0 0 0 0 0 0 1 1 1 1 1 0 0 0 0 0 1 0 0 17 42 28 23 20 19 15
0 0 18 11 10 6 0 0 0 0 0 0 0 0 0 0 0 0 0 0 0 0 1 1 1 1 1 0 1 1 1 1 1 1 0 0 9 17 15 10 14 16 18
0 0 0 18 11 4 0 0 0 0 0 0 0 0 0 0 0 0 0 0 0 0 0 0 0 1 1 1 1 1 1 0 0 0 0 0 0 5 17 14 17 21 16
0 0 0 0 2 5 0 0 0 0 0 0 0 0 0 0 0 0 0 0 0 0 0 0 0 0 1 1 2 2 0 0 0 0 0 0 0 0 16 27 23 16 22
0 0 0 2 0 0 0 0 0 0 0 0 0 0 0 0 0 0 0 0 0 0 0 0 0 0 0 0 0 0 0 0 0 0 0 0 0 0 0 14 25 33 28
0 1 1 3 1 1 1 0 0 0 0 0 0 0 0 0 0 0 0 0 0 0 0 0 0 0 0 0 0 0 0 0 0 0 0 0 0 0 0 0 0 3 26
0 0 1 3 2 2 4 3 0 1 1 0 0 0 0 0 0 0 0 0 0 0 0 0 0 0 0 0 0 0 0 0 0 0 0 0 0 0 0 0 0 0 0
1 2 3 3 5 4 7 4 5 0 0 0 0 0 0 0 0 0 0 0 0 0 0 0 0 0 0 0 0 0 0 0 0 0 0 0 0 0 0 0 0 0 0
0 4 5 5 5 5 4 3 1 0 0 0 0 0 0 0 0 0 0 0 0 0 0 0 0 0 0 0 0 0 0 0 0 0 0 0 0 0 0 0 0 0 0
1 1 4 4 3 4 5 2 3 3 0 0 0 0 0 0 0 0 0 0 0 0 0 0 0 0 0 0 0 0 0 0 0 0 0 0 0 0 0 0 0 0 0
0 1 0 1 1 3 4 5 4 1 0 0 0 0 0 0 0 0 0 0 0 0 0 0 0 0 0 0 0 0 0 0 0 0 0 0 0 0 0 0 0 0 0
0 0 0 2 2 2 3 4 3 2 2 0 0 0 0 0 0 0 0 0 0 0 0 0 0 0 0 0 0 0 0 0 0 0 0 0 0 0 0 0 0 0 0
CIN
-385 -245 -128 -144 -145 -117 -99 -82 -76 -5 0 -8 -7 -2 0 -1 -1 0 0 0 0 0 0 0 0 0 0 -1 -1 -5 -4 -2 -1 -3 -8 -4 0 0 0 0 0 -1 0
-409 -239 -140 -122 -127 -98 -72 -39 -18 -2 0 0 0 0 0 0 0 0 0 0 0 0 0 0 0 0 0 0 0 -1 -1 -3 -4 -15 -31 -10 -3 0 0 0 -1 -1 -1
-344 -241 -170 -115 -93 -62 -45 -26 -5 0 0 0 0 0 0 0 0 0 0 0 0 0 0 0 -1 0 0 0 0 0 0 -1 -4 -15 -25 -21 -5 0 0 -1 0 0 0
-323 -246 -245 -161 -69 -91 -20 -13 -3 0 0 0 0 0 0 0 0 0 0 0 0 0 0 0 0 -2 0 0 0 0 0 0 -6 -17 -21 -14 -1 0 0 0 0 0 0
-300 -273 -222 -114 -118 -59 -23 -9 -1 0 0 0 0 0 -1 -2 0 -1 -1 -1 -1 0 -1 0 -1 -2 -3 0 0 0 -1 -5 -17 -20 -29 -30 -8 -1 0 0 0 0 0
-307 -268 -188 -161 -134 -32 -16 0 0 0 0 0 0 -6 -3 0 0 0 -1 -3 -3 -2 -2 -1 -3 -7 -5 -3 -6 -5 -6 -15 -22 -42 -37 -16 -42 0 0 0 0 0 0
-335 -317 -244 -173 -79 -69 -12 0 0 0 0 0 -1 -7 -9 -1 -2 0 -21 -22 -18 -13 -3 -2 -4 -5 -6 -7 -12 -6 -13 -33 -63 -49 -54 -49 -52 0 0 0 0 0 0
-368 -293 -217 -175 -133 -45 -21 -4 0 -1 0 0 -4 -13 -11 0 -2 0 -6 -22 -24 -24 -11 -4 -5 -6 -18 -83 -13 -21 -42 -32 -49 -51 -84 -91 -22 0 0 0 0 0 0
-296 -271 -223 -178 -168 -80 -107 -32 -30 -15 -1 0 0 -1 -4 -2 -2 0 0 -7 -54 -26 -12 -5 -2 -3 -14 -5 -4 -52 -117 -88 -97 -73 -84 -88 -8 0 -2 0 0 0 0
-273 -279 -270 -189 -167 -181 -162 -108 -118 -63 -25 -4 -4 -29 -43 -47 -14 -7 -2 -2 -22 -13 -13 -7 -1 -7 -6 0 -13 -93 -79 -127 -126 -87 -88 -56 -18 0 -1 -1 0 -3 0
-277 -263 -249 -239 -219 -338 0 0 -89 -94 -61 -70 -111 0 0 0 0 0 0 -47 -2 -8 -4 -15 -4 -11 -14 -12 -8 -87 -102 -96 -66 -71 -49 -3 0 0 -1 0 0 -1 0
-255 -250 -285 -257 -255 -326 -264 0 0 0 0 0 0 0 0 0 0 0 0 0 -9 -5 -7 -5 0 -3 -32 -57 -2 -48 -107 -102 -59 -25 -14 -1 0 0 0 0 0 0 -4
-217 -248 -308 -379 -217 0 -47 0 0 0 0 0 0 0 0 0 0 0 0 0 -4 -22 -11 -1 -3 0 0 -46 -1 -15 0 -20 -15 -24 -1 -1 0 0 0 0 -7 -11 -36
-170 -196 -1 0 -156 -319 0 0 0 -7 0 0 0 0 0 0 0 0 0 0 0 0 -12 0 0 0 0 0 0 0 0 0 0 0 -24 -5 0 -2 -1 -4 -4 -48 -91
0 0 0 -8 -63 -47 0 0 0 0 0 0 0 0 0 0 0 0 0 0 0 0 0 0 0 0 0 0 0 0 0 0 0 0 -1 -4 -2 -17 -23 0 0 0 0
0 0 -47 -26 -35 -63 0 0 0 0 0 0 0 0 0 0 0 0 0 0 0 0 0 0 0 0 0 0 0 0 0 -1 0 -1 0 0 -4 -1 0 0 0 0 0
0 0 0 -69 -49 -42 0 0 0 0 0 0 0 0 0 0 0 0 0 0 0 0 0 0 0 0 0 0 0 0 0 0 0 0 0 0 -1 -9 -1 0 0 0 0
0 0 0 0 0 -44 0 0 0 0 0 0 0 0 0 0 0 0 0 0 0 0 0 0 0 0 0 0 0 -1 -1 0 0 0 0 0 0 -3 -1 -1 0 0 0
0 0 0 0 0 0 0 0 0 0 0 0 0 0 0 0 0 0 0 0 0 0 0 0 0 0 0 0 0 0 0 0 0 0 0 0 0 0 0 -8 -4 -1 0
0 0 0 0 0 0 0 0 0 0 0 0 0 0 0 0 0 0 0 0 0 0 0 0 0 0 0 0 0 0 0 0 0 0 0 0 0 0 0 0 0 -6 -1
0 0 0 0 0 0 0 0 0 0 0 0 0 0 0 0 0 0 0 0 0 0 0 0 0 0 0 0 0 0 0 0 0 0 0 0 0 0 0 0 0 0 0
0 0 0 0 0 0 0 0 0 0 0 0 0 0 0 0 0 0 0 0 0 0 0 0 0 0 0 0 0 0 0 0 0 0 0 0 0 0 0 0 0 0 0
0 0 0 0 0 0 0 0 0 0 0 0 0 0 0 0 0 0 0 0 0 0 0 0 0 0 0 0 0 0 0 0 0 0 0 0 0 0 0 0 0 0 0
0 0 0 0 0 0 0 0 0 0 0 0 0 0 0 0 0 0 0 0 0 0 0 0 0 0 0 0 0 0 0 0 0 0 0 0 0 0 0 0 0 0 0
0 0 0 0 0 0 0 0 0 0 0 0 0 0 0 0 0 0 0 0 0 0 0 0 0 0 0 0 0 0 0 0 0 0 0 0 0 0 0 0 0 0 0
0 0 0 0 0 0 0 0 0 0 0 0 0 0 0 0 0 0 0 0 0 0 -1 0 0 0 0 0 0 0 0 0 0 0 0 0 0 0 0 0 0 0 0
Wind_Speed
3 9 16 17 16 16 15 15 14 12 13 11 10 9 9 8 8 8 7 8 8 8 9 9 9 9 9 9 10 11 10 10 10 11 13 16 17 19 19 16 14 12 17
10 10 16 16 16 16 14 13 12 10 11 11 10 9 9 9 9 9 8 8 8 8 9 9 10 9 10 10 11 11 12 13 13 11 12 12 15 18 19 15 15 15 18
11 10 10 14 15 14 13 12 10 10 11 11 10 9 9 8 9 9 8 9 8 8 9 10 11 11 11 11 11 12 14 14 14 13 12 6 7 17 19 16 17 19 20
12 10 7 15 13 14 14 12 11 10 13 10 9 9 8 8 8 9 9 8 8 9 9 9 10 10 12 11 10 12 14 14 13 13 8 8 9 18 20 19 20 21 22
11 10 9 13 15 13 12 11 11 12 12 11 10 9 8 7 7 8 8 7 6 7 8 8 10 10 10 11 11 12 14 14 13 8 6 6 7 17 22 22 21 23 22
12 12 13 15 16 13 10 11 14 13 12 12 11 9 7 8 7 7 8 7 6 7 8 10 11 11 12 10 11 11 12 11 6 5 5 9 6 19 22 22 22 23 23
11 11 12 17 15 15 13 12 13 13 12 11 10 9 8 8 8 10 9 8 7 6 8 10 13 13 11 7 8 10 9 6 6 6 5 6 6 21 23 24 24 23 23
12 12 11 15 17 14 16 16 14 12 12 10 10 9 8 7 9 12 10 9 7 6 9 10 13 13 15 10 4 7 5 5 6 6 5 4 14 22 25 26 24 23 24
13 12 9 11 12 12 15 12 14 11 10 9 8 7 6 6 7 10 11 10 9 9 8 10 14 18 19 17 10 5 1 7 6 4 5 5 15 23 26 25 24 24 24
11 11 9 8 8 10 4 9 10 10 10 9 9 7 7 7 6 7 10 10 10 6 7 13 18 19 18 16 14 10 4 8 6 6 4 9 15 18 27 24 24 23 24
8 11 10 9 6 6 5 5 6 9 10 10 9 9 8 4 4 2 4 8 11 9 11 18 19 18 14 16 15 14 8 4 7 5 6 22 30 32 25 28 26 27 27
5 7 10 10 9 8 6 5 6 5 4 4 5 5 5 5 4 1 2 7 11 14 15 18 21 23 17 9 7 11 5 6 7 7 7 22 29 30 30 29 28 27 27
3 3 6 9 9 8 6 4 3 3 3 3 6 6 6 4 3 2 0 3 4 11 8 12 12 9 12 9 9 8 7 9 7 5 11 25 27 30 30 28 28 27 26
6 6 4 6 8 7 7 5 4 4 3 4 6 7 5 3 4 2 2 3 5 4 9 8 7 11 13 12 14 11 10 10 6 7 6 23 25 29 29 27 25 24 23
3 4 5 6 6 9 9 5 5 4 3 6 5 5 5 4 4 2 3 3 6 6 9 8 11 11 13 13 13 13 13 13 11 8 7 18 21 24 25 26 24 23 23
19 17 5 2 3 7 6 6 5 4 5 5 5 4 7 5 4 4 4 4 7 8 8 9 10 11 11 13 14 13 12 11 12 12 8 10 17 20 23 24 23 23 22
17 18 20 10 2 5 6 7 6 5 4 4 4 6 7 6 6 6 5 4 6 8 13 12 11 12 11 12 14 13 11 12 11 10 8 7 9 17 20 22 22 22 21
19 21 18 17 17 4 7 6 6 6 5 4 3 4 7 7 7 7 6 5 8 7 10 11 12 11 10 11 11 10 9 11 13 11 9 8 8 6 13 18 19 21 20
20 19 19 19 19 19 5 7 7 8 6 4 3 4 6 7 7 8 7 6 9 8 10 11 11 12 13 10 11 9 8 10 11 9 12 11 12 9 7 14 16 17 18
20 19 18 16 18 19 14 7 5 6 6 6 5 4 7 6 8 7 7 8 9 10 11 11 15 11 12 13 13 12 10 9 8 8 10 9 10 9 9 9 7 8 14
21 23 22 20 19 14 12 7 6 6 7 6 5 8 7 7 8 8 7 8 8 11 13 14 15 20 12 12 14 12 11 10 10 8 7 7 7 8 9 9 6 6 6
22 22 22 21 19 14 10 10 7 7 7 8 6 7 7 9 10 9 10 9 10 11 14 14 17 12 9 5 8 8 5 5 7 6 6 6 6 6 7 8 8 8 6
23 23 22 21 19 16 17 10 11 4 5 5 7 7 8 9 10 11 10 10 11 12 13 15 15 19 12 5 7 7 6 4 5 3 5 4 5 5 5 6 6 6 6
22 21 21 20 20 17 18 14 14 10 9 6 9 6 8 11 11 12 12 12 13 11 14 13 11 11 13 15 2 2 4 9 6 4 2 2 4 5 5 4 5 5 5
23 22 22 22 20 20 19 15 12 12 10 7 9 11 8 9 11 12 12 12 12 10 12 14 13 13 10 11 3 5 7 5 4 5 5 4 3 2 3 4 4 4 5
21 21 21 22 19 20 19 18 17 14 16 6 11 10 8 8 8 12 12 11 11 12 13 12 10 13 11 10 3 9 10 7 5 5 5 5 5 2 3 4 4 4 4
Wind_Direction
172 157 162 158 155 152 153 154 158 159 151 150 149 144 139 143 148 147 148 146 147 150 153 151 153 149 147 143 135 132 127 126 117 125 127 129 127 130 128 123 119 115 118
143 157 162 158 155 156 156 157 159 161 155 154 155 156 153 152 158 165 163 160 161 163 165 165 161 155 151 145 132 126 124 123 124 125 123 128 130 133 127 119 117 116 119
137 150 158 159 156 156 158 157 154 157 157 158 164 164 159 162 169 179 177 169 169 170 175 175 171 163 155 137 133 133 134 131 131 129 119 125 129 131 131 121 120 122 123
139 148 156 164 159 162 158 158 158 170 159 159 160 160 162 174 181 186 182 179 176 178 179 179 173 178 144 139 140 144 143 137 136 130 125 128 136 138 132 126 127 122 118
140 150 155 163 167 161 157 154 163 151 155 155 148 157 171 182 184 188 185 184 180 175 170 174 164 157 156 146 150 154 151 147 147 131 132 127 136 143 138 131 124 118 115
151 155 159 166 174 160 154 160 151 152 157 158 154 155 170 180 168 166 143 110 122 167 171 174 165 159 156 161 155 158 155 153 124 139 133 145 142 146 136 127 121 115 113
153 147 158 171 175 166 156 145 149 157 161 163 162 163 179 196 179 156 147 141 141 161 176 176 172 165 154 135 162 146 143 137 135 125 123 141 147 145 133 124 120 114 108
134 146 157 175 176 176 162 155 157 158 164 167 165 168 177 193 191 169 164 158 162 174 183 183 176 158 131 135 226 146 129 119 111 108 128 147 158 147 134 125 120 114 111
140 141 151 173 183 184 180 151 141 149 161 164 168 169 179 192 192 190 172 167 165 185 203 188 156 149 148 152 166 59 177 128 100 108 120 127 144 137 120 120 113 113 112
139 141 152 161 182 184 187 175 168 162 166 161 156 149 147 155 172 175 168 172 170 187 219 163 143 144 138 144 127 93 114 87 87 92 99 133 153 141 112 113 112 113 106
136 150 156 163 175 178 178 169 140 149 148 148 150 150 131 115 104 107 193 192 175 186 174 167 157 144 126 112 102 98 95 82 84 91 109 129 106 123 134 121 118 115 110
163 161 165 167 176 183 176 152 135 139 136 142 143 132 109 103 101 129 263 228 196 169 156 145 145 128 115 108 106 89 91 95 91 92 108 115 111 111 109 106 104 102 100
186 169 142 173 177 150 143 137 139 146 152 147 135 117 109 101 93 62 5 163 163 163 150 134 126 122 117 114 103 98 100 92 74 87 118 106 108 107 105 104 105 104 101
182 199 163 107 139 137 132 146 150 129 140 129 119 123 123 108 83 68 74 91 121 139 141 135 125 121 113 107 105 100 96 89 87 77 90 100 108 110 108 108 105 104 105
273 166 184 135 141 150 146 155 130 139 135 124 121 117 107 106 110 112 93 97 115 122 130 133 131 116 113 106 105 101 94 94 90 87 76 89 96 103 107 106 106 106 106
0 347 194 169 167 174 158 144 120 132 139 124 114 129 114 121 131 116 111 89 119 122 129 121 123 111 108 107 98 99 96 94 90 90 86 73 87 99 101 102 105 108 112
358 357 2 304 106 197 140 131 132 133 120 98 110 130 128 135 136 123 116 102 111 114 111 103 104 105 104 100 95 96 92 91 92 87 72 68 82 82 96 105 111 111 113
0 8 351 352 345 263 142 126 134 126 123 108 121 129 136 128 132 125 118 120 120 110 108 112 113 103 98 101 99 90 92 90 90 83 80 78 63 69 90 101 107 108 109
2 0 1 1 357 343 242 129 132 128 127 130 140 125 136 132 129 133 128 124 122 119 116 111 96 105 100 86 88 88 79 71 72 80 72 72 69 62 58 70 83 98 111
1 359 4 8 359 348 340 133 121 125 135 155 156 155 143 140 131 131 127 128 118 122 114 110 107 97 103 103 90 74 63 65 72 63 68 67 66 66 65 60 41 80 103
4 1 3 1 1 360 355 331 156 163 156 163 164 157 151 148 144 139 137 138 133 132 125 123 117 116 108 113 102 75 62 49 65 65 65 65 69 68 71 62 61 54 29
1 2 0 356 356 356 350 338 315 193 165 160 155 159 156 158 154 151 152 149 145 131 131 138 138 131 121 156 119 109 93 43 31 41 65 67 60 72 73 74 75 63 47
1 0 1 354 350 357 344 335 334 228 130 124 156 161 164 162 161 157 160 154 149 151 149 153 152 148 143 137 146 130 137 144 134 358 45 83 77 76 76 89 88 82 65
355 353 356 352 358 355 344 353 334 318 171 171 165 152 160 166 166 166 161 162 156 160 158 159 159 157 144 154 127 74 85 133 141 134 32 66 108 107 103 86 97 89 88
357 355 352 355 354 353 350 349 335 336 278 158 149 148 153 167 169 168 168 164 159 161 161 162 162 157 154 153 150 134 117 102 103 133 147 151 76 86 104 112 106 102 98
358 357 354 354 353 352 353 345 343 331 328 230 157 156 165 166 169 172 171 170 164 160 163 161 162 161 159 164 140 149 144 158 152 137 112 133 128 88 115 118 117 121 125